Location: Acts Church of Fort Worth
(32.6786°N, 97.2668°W)
Time: 21:58:45
(UTC+00:00)

Milstar 3 - Pass Details

Date: 18 January 2026
Orbit: 1100 x 5146 km, 28.2° (Epoch: 10 February)

Event Time Altitude Azimuth Distance (km) Brightness Sun altitude
Rises 02:02:37 0° 252° (WSW) 4,639 7.2 -28.0°
Reaches altitude 10° 02:05:05 10° 249° (WSW) 3,915 6.5 -28.5°
Maximum altitude 02:15:38 71° 167° (SSE) 2,597 4.5 -30.7°
Enters shadow 02:22:11 46° 101° (E) 3,739 4.9 -32.1°
